FREGAT DEB (TANK), 37347

Orbit data source: Space-Track

FREGAT DEB (TANK), 37347 is space debris in LEO originally from a launch on Thu, 20 Jan 2011 UTC launched from the Tyuratam Missile And Space Complex (TTMTR). Debris objects in space refer to the collection of defunct objects orbiting the Earth. Examples of debris include non-operational satellites, rocket bodies, and fragments generated from explosions, collisions, or faulty payload assembly.

Loading next visibility...
Identifier
37347, 2011-001D
Orbit
LEO
Last TLE update
6 hours ago
Origin
Manufacturer
Lavochkin
Mission
Spacecraft
Bus & Motor
FREGAT SBB, Unknown motor
Mass
360 kg wet, 360 kg dry
Launch date (UTC)
2011-01-20 (14 years ago)
Launch vehicle
Unknown
Launch site
Tyuratam Missile And Space Complex (TTMTR)
Object type
Payload
Rocket body
Debris
Shape & HBR
Torus, 3.9 m
Radar Cross Section
6.703 m², Large (>1 m²)

Expand to show TLE details & history

TLE from 6 hours ago
0 FREGAT DEB (TANK)
1 37347U 11001D   25129.16335614  .00043864  50449-5  12393-2 0  9997
2 37347  50.3152 138.9827 1350940 303.4861  44.3919 12.82463655603402
Epoch: 2025-05-09T03:55Z
Definitive object data (Epoch: 2025-05-09T03:55:13.97Z)
Latitude
-0.00008°
Longitude
-147.04902°
Altitude
667.633 km
Speed
7.841 km/s
True Right ascension
09h 15m 55s
True Declination
0° 00' 00"
Sunlit
Object was in daylight at TLE epoch
Visualization TLE readout
Latitude
30.15418°
Longitude
-119.20904°
Altitude
1,309.128 km
Speed
7.217 km/s
Apparent Right ascension
08h 58m 24s
Apparent Declination
-1° 27' 02"
Sunlit
Object is in daylight
Visualization observer readout
Local Sidereal Time
17:52:51
Azimuth
300.307° NW
Elevation
-33.034°
Doppler factor
1
Orbital elements
Apogee altitude
2,373.867 km
Perigee altitude
290.615 km
Semi-major axis
7,710.378 km
Eccentricity
0.135094
Inclination
50.3152°
RAAN
138.9827°
Arg. of periapsis
303.4861°
True anomaly
56.60383°
Mean anomaly
44.3919°
Eccentric anomaly
50.35176°
Mean motion
3.20575 °/min
BSTAR
0.0012393
Orbital period
112.3 mins
Loading maneuver chart data...
Loading SW <> Apogee altitude chart data...
Loading historical data...
Loading historical data...
Loading historical data...
Loading historical data...
Loading historical data...
Loading historical data...
Loading historical data...

FREGAT DEB (TANK) Visibility forecast

Observer location: undefined°, undefined°

Span
Click to sort rows by Start time (UTC) header in descending order
Start Az.
Max El. time (UTC)
Max El. Az.
Max El.
End time (UTC)
End Az.
26 mins2025-05-09 10:01:29.078Z303.808° NW2025-05-09 10:14:29.078Z230.021° WSW44.963°2025-05-09 10:27:29.078Z130.661° SE
21 mins2025-05-09 12:02:29.078Z292.53° NW2025-05-09 12:12:29.078Z240.674° WSW31.686°2025-05-09 12:23:29.078Z177.657° S
15 mins2025-05-10 02:30:29.078Z192.511° SSW2025-05-10 02:35:29.078Z126.384° SE36.636°2025-05-10 02:45:29.078Z59.772° ENE
19 mins2025-05-10 04:26:29.078Z254.189° W2025-05-10 04:33:29.078Z336.302° NNW43.003°2025-05-10 04:45:29.078Z57.193° ENE
22 mins2025-05-10 06:25:29.078Z289.946° WNW2025-05-10 06:34:29.078Z5.66° NNE38.12°2025-05-10 06:47:29.078Z73.64° E
25 mins2025-05-10 08:24:29.078Z303.717° NW2025-05-10 08:35:29.078Z26.594° NE42.387°2025-05-10 08:49:29.078Z104.65° ESE
|